Los Alamos, NM

10:54 PM MDT on March 25, 2017 (GMT -0600)
Los Alamos

Weather History for KLAM - February, 2013

Change the Weather History Date:

Sunday, February 24, 2013

  Actual Average Record
Temperature  
Mean Temperature 30 °F -  
Max Temperature 36 °F 47 °F 68 °F (1986)
Min Temperature 24 °F 23 °F 3 °F (1960)
Degree Days  
Heating Degree Days 35    
Moisture  
Dew Point 14 °F    
Average Humidity 54    
Maximum Humidity 87    
Minimum Humidity 26    
Precipitation  
Precipitation 0.00 in - - ()
Sea Level Pressure  
Sea Level Pressure 29.70 in    
Wind  
Wind Speed 9 mph (North)    
Max Wind Speed 32 mph    
Max Gust Speed 47 mph    
Visibility 9 miles    
Events Snow    
Averages and records for this station are not official NWS values.
T = Trace of Precipitation, MM = Missing Value Source: NWS Daily Summary

Daily Weather History Graph

Daily Weather History Graph

Search for Another Location

Airport or City:

Trip Planner

Search our weather history database for the weather conditions in past years. The results will help you decide how hot, cold, wet, or windy it might be!

Date:

Astronomy

Feb. 24, 2013 Rise Set
Actual Time 6:41 AM MST 5:55 PM MST
Civil Twilight 6:15 AM MST 6:21 PM MST
Nautical Twilight 5:45 AM MST 6:51 PM MST
Astronomical Twilight 5:16 AM MST 7:20 PM MST
Moon 5:09 PM MST (2/24) 5:39 AM MST (2/24)
Length of Visible Light 12h 06m
Length of Day
11h 14m
Waxing Gibbous, 99% of the Moon is Illuminated
Feb 24
Waxing Gibbous
Feb 25
Full
Mar 4
Last Quarter
Mar 11
New
Mar 19
First Quarter

Hourly Weather History & Observations

Time (MST) Temp. Windchill Dew Point Humidity Pressure Visibility Wind Dir Wind Speed Gust Speed Precip Events Conditions
12:15 AM 34.5 °F 28.6 °F 12.9 °F 41% 29.72 in 10.0 mi South 6.9 mph - N/A   Overcast
12:35 AM 33.8 °F 28.6 °F 13.6 °F 44% 29.71 in 10.0 mi SSE 5.8 mph - N/A   Mostly Cloudy
12:55 AM 33.8 °F 28.6 °F 13.5 °F 43% 29.72 in 10.0 mi South 5.8 mph - N/A   Mostly Cloudy
1:15 AM 34.0 °F 28.0 °F 14.4 °F 45% 29.73 in 10.0 mi SSW 6.9 mph - N/A   Overcast
1:35 AM 35.2 °F 28.8 °F 19.4 °F 53% 29.73 in 10.0 mi SW 8.1 mph 20.7 mph N/A   Overcast
1:55 AM 34.5 °F 25.7 °F 19.4 °F 54% 29.72 in 10.0 mi SSW 12.7 mph 19.6 mph N/A   Mostly Cloudy
2:15 AM 33.3 °F 27.1 °F 18.9 °F 56% 29.72 in 10.0 mi SSW 6.9 mph - N/A   Mostly Cloudy
2:35 AM 32.9 °F 26.7 °F 19.6 °F 58% 29.71 in 10.0 mi WSW 6.9 mph - N/A   Scattered Clouds
2:55 AM 32.4 °F 29.1 °F 19.4 °F 59% 29.71 in 10.0 mi North 3.5 mph - N/A   Mostly Cloudy
3:15 AM 32.4 °F - 19.2 °F 58% 29.72 in 10.0 mi Calm Calm - N/A   Overcast
3:35 AM 30.6 °F - 20.3 °F 66% 29.72 in 10.0 mi Calm Calm - N/A   Overcast
3:55 AM 30.2 °F 26.7 °F 20.8 °F 68% 29.72 in 10.0 mi ESE 3.5 mph - N/A   Overcast
4:15 AM 30.6 °F 27.1 °F 20.7 °F 67% 29.72 in 10.0 mi WNW 3.5 mph - N/A   Overcast
4:35 AM 29.8 °F 20.3 °F 16.2 °F 57% 29.70 in 10.0 mi West 11.5 mph - N/A   Mostly Cloudy
5:15 AM 28.4 °F - 17.6 °F 64% 29.70 in 10.0 mi Calm Calm - N/A   Clear
5:35 AM 28.8 °F 25.0 °F 18.3 °F 65% 29.71 in 10.0 mi SE 3.5 mph - N/A   Scattered Clouds
5:55 AM 27.3 °F 19.1 °F 19.4 °F 72% 29.70 in 10.0 mi SSE 8.1 mph - N/A   Overcast
6:15 AM 26.4 °F 20.9 °F 18.9 °F 73% 29.69 in 10.0 mi SE 4.6 mph - N/A   Overcast
6:35 AM 26.2 °F 22.1 °F 18.5 °F 73% 29.70 in 10.0 mi SSE 3.5 mph - N/A   Overcast
6:55 AM 25.7 °F - 18.7 °F 75% 29.70 in 10.0 mi Calm Calm - N/A   Overcast
7:15 AM 25.7 °F - 18.5 °F 74% 29.71 in 10.0 mi Calm Calm - N/A   Overcast
7:35 AM 26.1 °F - 18.9 °F 74% 29.71 in 10.0 mi Calm Calm - N/A   Overcast
7:55 AM 26.6 °F - 19.0 °F 73% 29.71 in 10.0 mi Calm Calm - N/A   Overcast
8:15 AM 26.6 °F - 19.0 °F 73% 29.72 in 10.0 mi Calm Calm - N/A   Overcast
8:35 AM 26.6 °F 21.2 °F 19.2 °F 74% 29.72 in 10.0 mi ENE 4.6 mph - N/A   Overcast
8:55 AM 26.6 °F 20.0 °F 18.7 °F 72% 29.72 in 10.0 mi East 5.8 mph - N/A   Overcast
9:15 AM 27.9 °F 21.5 °F 16.5 °F 62% 29.72 in 10.0 mi NNE 5.8 mph - N/A   Overcast
9:35 AM 28.6 °F 24.8 °F 15.8 °F 59% 29.71 in 10.0 mi North 3.5 mph - N/A   Overcast
9:55 AM 29.5 °F - 14.4 °F 53% 29.71 in 10.0 mi Calm Calm - N/A   Overcast
10:15 AM 29.3 °F 22.3 °F 14.5 °F 54% 29.70 in 10.0 mi NNE 6.9 mph - N/A   Overcast
10:35 AM 30.4 °F 25.6 °F 13.5 °F 50% 29.69 in 10.0 mi North 4.6 mph - N/A   Mostly Cloudy
10:55 AM 31.6 °F 25.1 °F 13.5 °F 47% 29.69 in 10.0 mi NNE 6.9 mph - N/A   Scattered Clouds
11:15 AM 31.6 °F - 10.9 °F 42% 29.68 in 10.0 mi Calm Calm - N/A   Mostly Cloudy
11:35 AM 32.2 °F 26.7 °F 9.7 °F 39% 29.67 in 10.0 mi North 5.8 mph - N/A   Mostly Cloudy
11:55 AM 32.9 °F - 9.1 °F 37% 29.66 in 10.0 mi Calm Calm - N/A   Mostly Cloudy
12:15 PM 34.3 °F 26.5 °F 9.1 °F 35% 29.65 in 10.0 mi East 10.4 mph - N/A   Overcast
12:35 PM 34.2 °F 28.2 °F 6.4 °F 31% 29.64 in 10.0 mi NE 6.9 mph - N/A   Mostly Cloudy
12:55 PM 35.2 °F 26.6 °F 5.2 °F 28% 29.62 in 10.0 mi East 12.7 mph 17.3 mph N/A   Scattered Clouds
1:15 PM 34.7 °F 30.6 °F 3.4 °F 27% 29.62 in 10.0 mi North 4.6 mph - N/A   Scattered Clouds
1:35 PM 35.1 °F 28.6 °F 4.1 °F 27% 29.62 in 10.0 mi NNW 8.1 mph - N/A   Mostly Cloudy
1:55 PM 35.6 °F 27.5 °F 3.9 °F 26% 29.61 in 10.0 mi NNW 11.5 mph - N/A   Mostly Cloudy
2:15 PM 34.0 °F 28.0 °F 2.8 °F 27% 29.62 in 10.0 mi NNW 6.9 mph 17.3 mph N/A   Mostly Cloudy
2:35 PM 34.9 °F 27.1 °F 4.1 °F 27% 29.61 in 10.0 mi NNW 10.4 mph - N/A   Overcast
2:55 PM 34.3 °F 25.5 °F 5.0 °F 29% 29.61 in 10.0 mi NNW 12.7 mph 16.1 mph N/A   Mostly Cloudy
3:15 PM 35.6 °F 28.6 °F 5.5 °F 28% 29.61 in 10.0 mi NNW 9.2 mph 18.4 mph N/A   Clear
3:35 PM 36.0 °F 25.6 °F 5.0 °F 27% 29.60 in 10.0 mi North 18.4 mph 23.0 mph N/A   Clear
3:55 PM 35.2 °F 25.8 °F 5.0 °F 28% 29.62 in 10.0 mi North 15.0 mph 21.9 mph N/A   Scattered Clouds
4:15 PM 34.7 °F 24.7 °F 6.1 °F 30% 29.62 in 10.0 mi North 16.1 mph 19.6 mph N/A   Overcast
4:35 PM 32.9 °F 22.4 °F 10.2 °F 39% 29.63 in 10.0 mi NNW 16.1 mph 27.6 mph N/A   Overcast
4:55 PM 32.0 °F 21.2 °F 12.2 °F 44% 29.64 in 10.0 mi NNW 16.1 mph 27.6 mph N/A   Overcast
5:15 PM 31.6 °F 19.7 °F 12.7 °F 46% 29.64 in 10.0 mi NNW 19.6 mph 33.4 mph N/A   Overcast
5:35 PM 30.7 °F 19.2 °F 14.2 °F 50% 29.65 in 10.0 mi North 17.3 mph 31.1 mph N/A   Overcast
5:55 PM 30.2 °F 17.4 °F 14.4 °F 52% 29.67 in 10.0 mi NNW 20.7 mph 29.9 mph N/A   Overcast
6:15 PM 29.8 °F 14.7 °F 12.0 °F 48% 29.66 in 10.0 mi North 29.9 mph 42.6 mph N/A   Overcast
6:35 PM 28.6 °F 13.8 °F 14.2 °F 55% 29.68 in 10.0 mi NNW 26.5 mph 44.9 mph N/A   Overcast
6:55 PM 24.8 °F 10.0 °F 20.5 °F 84% 29.70 in 1.2 mi NNW 21.9 mph 35.7 mph N/A Snow Light Snow
7:15 PM 24.6 °F 11.3 °F 21.2 °F 87% 29.72 in 1.2 mi North 17.3 mph 26.5 mph N/A Snow Light Snow
7:35 PM 25.2 °F 12.0 °F 19.4 °F 79% 29.72 in 2.5 mi NNW 17.3 mph 28.8 mph N/A Snow Light Snow
7:55 PM 25.7 °F 13.5 °F 19.2 °F 76% 29.72 in 4.0 mi NNW 15.0 mph 25.3 mph N/A Snow Light Snow
8:15 PM 26.2 °F 10.6 °F 18.7 °F 73% 29.71 in 5.0 mi NNW 26.5 mph 35.7 mph N/A Snow Light Snow
8:35 PM 25.7 °F 9.1 °F 18.7 °F 75% 29.73 in 5.0 mi North 29.9 mph 38.0 mph N/A Snow Light Snow
8:55 PM 25.0 °F 8.4 °F 19.4 °F 79% 29.74 in 3.0 mi North 28.8 mph 41.4 mph N/A Snow Light Snow
9:15 PM 25.3 °F 9.7 °F 18.5 °F 75% 29.75 in 3.0 mi NNW 25.3 mph 42.6 mph N/A Snow Light Snow
9:35 PM 27.1 °F 14.5 °F 14.0 °F 58% 29.75 in 10.0 mi North 17.3 mph 29.9 mph N/A   Overcast
9:55 PM 27.5 °F 12.6 °F 11.8 °F 52% 29.76 in 10.0 mi NNW 25.3 mph 47.2 mph N/A   Overcast
10:15 PM 27.1 °F 11.6 °F 12.2 °F 53% 29.76 in 10.0 mi North 27.6 mph 38.0 mph N/A   Overcast
10:35 PM 27.1 °F 15.4 °F 11.8 °F 53% 29.78 in 10.0 mi North 15.0 mph 40.3 mph N/A   Overcast
10:55 PM 26.6 °F 12.7 °F 11.5 °F 53% 29.78 in 10.0 mi North 20.7 mph 39.1 mph N/A   Overcast
11:15 PM 26.6 °F 9.8 °F 11.7 °F 53% 29.78 in 10.0 mi North 32.2 mph 42.6 mph N/A   Scattered Clouds
11:35 PM 26.6 °F 13.4 °F 9.5 °F 49% 29.79 in 10.0 mi NNW 18.4 mph 40.3 mph N/A   Clear
11:55 PM 27.0 °F 14.3 °F 9.1 °F 47% 29.80 in 10.0 mi North 17.3 mph 34.5 mph N/A   Clear